FIREFLY ALPHA R/B, 60210

Orbit data source: Space-Track

FIREFLY ALPHA R/B, 60210 is space debris in SSO originally from a launch on Thu, 04 Jul 2024 UTC launched from the Air Force Western Test Range (AFWTR). Debris objects in space refer to the collection of defunct objects orbiting the Earth. Examples of debris include non-operational satellites, rocket bodies, and fragments generated from explosions, collisions, or faulty payload assembly.

Loading next visibility...
FIREFLY ALPHA R/B details
Identifier
60210, 2024-125H
Orbit
SSO
Last TLE update1 day ago
Origin
Flag of USFirefly (US)
ManufacturerFirefly
MissionSpacecraft
Bus & MotorFIREFLY A2, Unknown motor
Mass909 kg wet, 909 kg dry
Launch date (UTC)
2024-07-04 (6 months ago)
Launch vehicleUnknown
Launch site
Air Force Western Test Range (AFWTR)
Object type
Payload
Rocket body
Debris
Shape & HBRUnknown
Radar Cross SectionLarge (>1 m²)

Expand to show TLE details & history

TLE from 1 day ago
0 FIREFLY ALPHA R/B
1 60210U 24125H   24355.55438483  .00017976  00000-0  52864-3 0  9990
2 60210  97.2884 206.7539 0044869  14.3263 345.9241 15.34126277 25880
Epoch: 2024-12-20T13:18Z
Definitive object data (Epoch: 2024-12-20T13:18:18.849Z)
Latitude0.00003°
Longitude-82.44287°
Altitude436.855 km
Speed7.666 km/s
True Right ascension13h 47m 00s
True Declination0° 00' 00"
Sunlit
Object was in daylight at TLE epoch
Visualization TLE readout
Latitude-39.30235°
Longitude-75.37927°
Altitude458.596 km
Speed7.647 km/s
Apparent Right ascension10h 28m 24s
Apparent Declination-84° 27' 57"
Sunlit
Object is in daylight
Visualization observer readout
Local Sidereal Time14:47:07
Azimuth186.298° SSW
Elevation-37.376°
Doppler factor1
Orbital elements
Apogee altitude491.143 km
Perigee altitude429.775 km
Semi-major axis6,838.596 km
Eccentricity0.0044869
Inclination97.2884°
RAAN206.7539°
Arg. of periapsis14.3263°
True anomaly345.79837°
Mean anomaly345.9241°
Eccentric anomaly345.8613°
Mean motion3.83789 °/min
BSTAR0.00052864
Orbital period93.8 mins
Loading maneuver chart data...
Loading historical data...
Loading historical data...
Loading historical data...
Loading historical data...
Loading historical data...
Loading historical data...
Loading historical data...

FIREFLY ALPHA R/B Visibility forecast

Observer location: undefined°, undefined

Span
Click to sort rows by Start time (UTC) header in descending order
Start Az.
Max El. time (UTC)
Max El. Az.
Max El.
End time (UTC)
End Az.
6 mins2024-12-22 03:25:46.910Z359.71° N2024-12-22 03:28:46.910Z269.736° W38.795°2024-12-22 03:31:46.910Z207.986° SW
4 mins2024-12-22 13:58:46.910Z131.458° SE2024-12-22 14:00:46.910Z65° ENE31.426°2024-12-22 14:02:46.910Z11.875° NNE
|